Weather History for Sylvania, GA

Change the Weather History Date:

Wednesday, January 29, 2014

  Actual Average (KSAV) Record (KSAV)
Temperature  
Mean Temperature 32 °F 50 °F  
Max Temperature 34 °F 61 °F 84 °F (1957)
Min Temperature 29 °F 39 °F 17 °F (1897)
Degree Days  
Heating Degree Days 34 15  
Month to date heating degree days 456  
Since 1 July heating degree days 1146  
Cooling Degree Days 0 0  
Month to date cooling degree days 0  
Year to date cooling degree days 0  
Moisture  
Dew Point 28 °F    
Average Humidity 87    
Maximum Humidity 92    
Minimum Humidity 83    
Precipitation  
Precipitation 0.00 in 0.13 in 1.29 in (1994)
Month to date precipitation 3.44  
Year to date precipitation 3.44  
Sea Level Pressure  
Sea Level Pressure 30.28 in    
Wind  
Wind Speed 1 mph (NNE)    
Max Wind Speed 5 mph    
Max Gust Speed -    
Visibility 10 miles    
Events Rain    
T = Trace of Precipitation, MM = Missing Value Source: NWS Daily Summary

Daily Weather History Graph

Daily Weather History Graph

Search for Another Location

Airport:

Trip Planner

Search our weather history database for the weather conditions in past years. The results will help you decide how hot, cold, wet, or windy it might be!

Date:

Astronomy

Jan. 29, 2014 Rise Set
Actual Time 7:22 AM EST 5:56 PM EST
Civil Twilight 6:56 AM EST 6:22 PM EST
Nautical Twilight 6:27 AM EST 6:52 PM EST
Astronomical Twilight 5:58 AM EST 7:21 PM EST
Moon 5:57 AM EST (1/29) 4:54 PM EST (1/29)
Length of Visible Light 11h 25m
Length of Day
10h 33m
Waning Crescent, 2% of the Moon is Illuminated
Jan 29
Waning Crescent
Jan 30
New
Feb 6
First Quarter
Feb 14
Full
Feb 22
Last Quarter

Hourly Weather History & Observations

Time (EST) Temp. Windchill Dew Point Humidity Pressure Visibility Wind Dir Wind Speed Gust Speed Precip Events Conditions
12:15 AM 34.2 °F - 31.8 °F 91% 30.14 in 5.0 mi Calm Calm - N/A Rain Rain
12:35 AM 34.2 °F 31.2 °F 31.8 °F 91% 30.15 in 5.0 mi North 3.5 mph - N/A Rain Rain
12:55 AM 34.0 °F - 31.8 °F 92% 30.14 in 7.0 mi Calm Calm - N/A   Drizzle
1:15 AM 33.4 °F 30.4 °F 31.1 °F 91% 30.16 in 10.0 mi North 3.5 mph - N/A   Light Drizzle
1:35 AM 33.3 °F 30.2 °F 31.1 °F 92% 30.14 in 10.0 mi NNE 3.5 mph - N/A   Overcast
1:55 AM 32.9 °F 28.5 °F 30.6 °F 91% 30.17 in 7.0 mi North 4.6 mph - N/A   Overcast
2:15 AM 32.2 °F 27.7 °F 30.0 °F 92% 30.16 in 10.0 mi North 4.6 mph - N/A   Overcast
2:35 AM 32.0 °F 28.7 °F 29.5 °F 90% 30.15 in 10.0 mi NNE 3.5 mph - N/A   Overcast
2:55 AM 32.0 °F 27.5 °F 29.7 °F 91% 30.15 in 7.0 mi NNE 4.6 mph - N/A   Overcast
3:15 AM 32.0 °F 27.5 °F 29.1 °F 89% 30.16 in 10.0 mi NNE 4.6 mph - N/A   Overcast
3:35 AM 31.8 °F - 28.8 °F 88% 30.17 in 10.0 mi Calm Calm - N/A   Overcast
3:55 AM 31.8 °F - 28.6 °F 88% 30.17 in 10.0 mi Calm Calm - N/A   Overcast
4:15 AM 31.8 °F - 28.9 °F 89% 30.19 in 10.0 mi Calm Calm - N/A   Overcast
4:35 AM 31.3 °F 27.9 °F 28.4 °F 89% 30.19 in 10.0 mi North 3.5 mph - N/A   Overcast
4:55 AM 30.9 °F - 27.9 °F 88% 30.19 in 10.0 mi Calm Calm - N/A   Overcast
5:15 AM 31.1 °F 27.7 °F 27.9 °F 88% 30.23 in 10.0 mi NNW 3.5 mph - N/A   Overcast
5:35 AM 30.9 °F - 27.5 °F 87% 30.21 in 10.0 mi Calm Calm - N/A   Overcast
5:55 AM 30.9 °F - 27.9 °F 88% 30.20 in 10.0 mi Calm Calm - N/A   Overcast
6:15 AM 30.9 °F 27.5 °F 27.9 °F 88% 30.20 in 10.0 mi North 3.5 mph - N/A   Overcast
6:35 AM 30.7 °F 27.3 °F 27.3 °F 87% 30.21 in 10.0 mi North 3.5 mph - N/A   Overcast
6:55 AM 30.6 °F - 27.0 °F 86% 30.23 in 10.0 mi Calm Calm - N/A   Overcast
7:15 AM 30.6 °F - 27.0 °F 86% 30.24 in 10.0 mi Calm Calm - N/A   Overcast
7:35 AM 30.2 °F 26.7 °F 26.8 °F 87% 30.23 in 10.0 mi North 3.5 mph - N/A   Overcast
7:55 AM 30.2 °F 25.4 °F 26.6 °F 86% 30.25 in 10.0 mi North 4.6 mph - N/A   Overcast
8:15 AM 30.2 °F - 26.6 °F 86% 30.26 in 10.0 mi Calm Calm - N/A   Scattered Clouds
8:55 AM 30.2 °F 25.4 °F 26.6 °F 86% 30.27 in 10.0 mi NNE 4.6 mph - N/A   Overcast
9:15 AM 30.6 °F 27.1 °F 27.0 °F 86% 30.30 in 10.0 mi North 3.5 mph - N/A   Overcast
9:35 AM 30.9 °F 27.5 °F 27.3 °F 86% 30.30 in 10.0 mi NNE 3.5 mph - N/A   Overcast
9:55 AM 30.9 °F - 27.5 °F 87% 30.32 in 10.0 mi Calm Calm - N/A   Overcast
10:15 AM 30.9 °F - 27.5 °F 87% 30.32 in 10.0 mi Calm Calm - N/A   Overcast
10:35 AM 30.9 °F - 27.5 °F 87% 30.32 in 7.0 mi Calm Calm - N/A   Overcast
10:55 AM 31.1 °F - 27.5 °F 87% 30.34 in 10.0 mi Calm Calm - N/A   Mostly Cloudy
11:15 AM 31.3 °F 27.9 °F 27.1 °F 85% 30.32 in 10.0 mi NNE 3.5 mph - N/A   Mostly Cloudy
11:35 AM 31.6 °F - 27.5 °F 85% 30.33 in 10.0 mi Calm Calm - N/A   Overcast
11:55 AM 31.5 °F - 27.5 °F 85% 30.34 in 10.0 mi Calm Calm - N/A   Overcast
12:15 PM 31.6 °F - 27.7 °F 85% 30.33 in 10.0 mi Calm Calm - N/A   Overcast
12:35 PM 32.0 °F - 27.5 °F 83% 30.33 in 10.0 mi Calm Calm - N/A   Overcast
12:55 PM 32.0 °F 28.7 °F 27.9 °F 85% 30.31 in 10.0 mi ENE 3.5 mph - N/A   Mostly Cloudy
1:15 PM 32.0 °F - 27.5 °F 83% 30.30 in 10.0 mi Calm Calm - N/A   Overcast
1:35 PM 32.0 °F - 27.9 °F 85% 30.30 in 10.0 mi Calm Calm - N/A   Overcast
1:55 PM 32.0 °F - 28.0 °F 85% 30.31 in 10.0 mi Calm Calm - N/A   Overcast
2:15 PM 32.0 °F - 27.9 °F 85% 30.32 in 10.0 mi Calm Calm - N/A   Overcast
2:35 PM 32.0 °F - 28.0 °F 85% 30.32 in 10.0 mi Calm Calm - N/A   Overcast
2:55 PM 32.0 °F - 28.2 °F 86% 30.32 in 10.0 mi Calm Calm - N/A   Overcast
3:15 PM 31.8 °F - 28.0 °F 86% 30.30 in 10.0 mi Calm Calm - N/A   Overcast
3:35 PM 32.0 °F 27.5 °F 27.7 °F 84% 30.29 in 10.0 mi NE 4.6 mph - N/A   Overcast
3:55 PM 31.8 °F 28.5 °F 27.9 °F 85% 30.30 in 10.0 mi NE 3.5 mph - N/A   Overcast
4:15 PM 31.6 °F - 27.7 °F 85% 30.31 in 10.0 mi Calm Calm - N/A   Overcast
4:35 PM 31.8 °F - 27.5 °F 84% 30.32 in 10.0 mi Calm Calm - N/A   Overcast
4:55 PM 31.6 °F - 27.5 °F 85% 30.33 in 10.0 mi Calm Calm - N/A   Overcast
5:15 PM 31.6 °F - 27.9 °F 86% 30.33 in 10.0 mi Calm Calm - N/A   Overcast
5:35 PM 31.6 °F - 27.7 °F 85% 30.34 in 10.0 mi Calm Calm - N/A   Scattered Clouds
5:55 PM 31.5 °F - 27.9 °F 87% 30.33 in 10.0 mi Calm Calm - N/A   Clear
6:15 PM 31.3 °F - 27.7 °F 87% 30.31 in 10.0 mi Calm Calm - N/A   Clear
6:35 PM 31.1 °F - 27.5 °F 87% 30.32 in 10.0 mi Calm Calm - N/A   Scattered Clouds
6:55 PM 31.1 °F - 27.5 °F 87% 30.34 in 10.0 mi Calm Calm - N/A   Scattered Clouds
7:15 PM 31.1 °F - 27.5 °F 87% 30.35 in 10.0 mi Calm Calm - N/A   Scattered Clouds
7:35 PM 31.1 °F - 27.5 °F 87% 30.34 in 10.0 mi Calm Calm - N/A   Clear
7:55 PM 30.9 °F - 27.0 °F 85% 30.35 in 10.0 mi Calm Calm - N/A   Clear
8:15 PM 30.7 °F - 27.0 °F 86% 30.35 in 10.0 mi Calm Calm - N/A   Clear
8:35 PM 30.2 °F - 27.0 °F 88% 30.35 in 10.0 mi Calm Calm - N/A   Clear
8:55 PM 30.6 °F - 27.1 °F 87% 30.35 in 10.0 mi Calm Calm - N/A   Clear
9:15 PM 30.4 °F - 27.1 °F 88% 30.36 in 10.0 mi Calm Calm - N/A   Clear
9:35 PM 30.4 °F - 27.1 °F 88% 30.35 in 10.0 mi Calm Calm - N/A   Clear
9:55 PM 30.2 °F - 27.1 °F 88% 30.34 in 10.0 mi Calm Calm - N/A   Clear
10:15 PM 29.8 °F - 26.6 °F 88% 30.35 in 10.0 mi Calm Calm - N/A   Clear
10:35 PM 29.7 °F - 26.6 °F 88% 30.35 in 10.0 mi Calm Calm - N/A   Clear
10:55 PM 29.5 °F - 26.4 °F 88% 30.36 in 10.0 mi Calm Calm - N/A   Clear
11:15 PM 30.0 °F - 27.3 °F 90% 30.36 in 10.0 mi Calm Calm - N/A   Clear
11:35 PM 30.0 °F - 27.3 °F 90% 30.37 in 10.0 mi Calm Calm - N/A   Clear
11:55 PM 29.7 °F - 26.6 °F 88% 30.37 in 10.0 mi Calm Calm - N/A   Clear